Hourly Data Report for September 30, 2017

All times are specified in Local Standard Time (LST). Add 1 hour to adjust for Daylight Saving Time where and when it is observed.

CORAL HARBOUR A
NUNAVUT

64°11'36.000" N
83°21'34.000" W
62.20 m
2301002
71915
YZS

Download Data

Hourly Data (September 2017)
Hourly Data Report for September 30, 2017
Temp Definition
°C
Dew Point Temp Definition
°C
Rel Hum Definition
%
Wind Dir Definition
10's deg

Wind Spd Definition
km/h
Visibility Definition
km
Stn Press Definition
kPa
Hmdx Definition


Wind Chill Definition


Weather Definition


TIME
00:00 Legend Double Dagger 0.6 0.5 99 9 9 0.8 98.01     Moderate Drizzle
01:00 Legend Double Dagger 0.3 0.2 99 7 18 0.8 97.88     Fog
02:00 Legend Double Dagger 0.2 0.0 99 29 7 19.3 97.76     LegendNANA
03:00
04:00 Legend Double Dagger 0.7 -0.5 91 32 26 24.1 97.60     Cloudy
05:00 Legend Double Dagger 0.3 -0.8 93 31 30 24.1 97.58     LegendNANA
06:00 Legend Double Dagger -0.3 -2.3 87 33 43 24.1 97.62   -8 LegendNANA
07:00 Legend Double Dagger -0.4 -2.5 86 1 47 24.1 97.76   -8 Mainly Clear
08:00 Legend Double Dagger -0.6 -2.4 87 1 54 24.1 98.03   -9 LegendNANA
09:00 Legend Double Dagger -0.7 -2.5 88 2 65 4.8 98.33   -10 Snow,Blowing Snow
10:00 Legend Double Dagger -1.2 -3.2 86 2 56 24.1 98.69   -10 Clear
11:00 Legend Double Dagger -1.0 -4.4 78 2 47 24.1 98.99   -9 LegendNANA
12:00 Legend Double Dagger -1.6 -4.7 79 1 43 19.3 99.25   -10 Snow Showers,Blowing Snow
13:00 Legend Double Dagger -1.7 -4.8 80 2 40 19.3 99.49   -10 Snow Showers,Blowing Snow
14:00 Legend Double Dagger -1.4 -5.0 76 2 32 24.1 99.66   -9 LegendNANA
15:00 Legend Double Dagger -2.0 -5.1 79 36 44 19.3 99.80   -10 Snow Showers
16:00 Legend Double Dagger -3.3 -6.5 79 36 41 24.1 99.95   -12 Mainly Clear
17:00 Legend Double Dagger -4.3 -7.9 76 35 39 19.3 100.07   -13 Snow Showers,Blowing Snow
18:00 Legend Double Dagger -4.9 -7.7 81 36 36 19.3 100.20   -14 Snow Showers,Blowing Snow
19:00 Legend Double Dagger -5.3 -7.9 82 1 18 19.3 100.36   -12 Snow Showers,Blowing Snow
20:00 Legend Double Dagger -5.7 -8.6 80 35 40 19.3 100.42   -15 Snow Showers,Blowing Snow
21:00 Legend Double Dagger -4.3 -7.6 78 1 18 19.3 100.53   -10 Snow,Blowing Snow
22:00 Legend Double Dagger -4.1 -7.5 78 36 28 24.1 100.59   -12 Snow,Blowing Snow
23:00 Legend Double Dagger -4.3 -7.0 81 35 36 24.1 100.67   -13 LegendNANA

Notes on Data Quality.

Legend

  • E = Estimated
  • M = Missing
  • NA = Not Available
  • ‡ = Partner data that is not subject to review by the National Climate Archives
Date modified: